Year,Month,Day,Hour,Minute,Value (Times are PST for temperature in C)
2015,06,21,00,00,14.60
2015,06,21,00,01,14.60
2015,06,21,00,02,14.60
2015,06,21,00,03,14.60
2015,06,21,00,04,14.60
2015,06,21,00,05,14.60
2015,06,21,00,06,14.50
2015,06,21,00,07,14.50
2015,06,21,00,08,14.50
2015,06,21,00,09,14.50
2015,06,21,00,10,14.50
2015,06,21,00,11,14.40
2015,06,21,00,12,14.40
2015,06,21,00,13,14.40
2015,06,21,00,14,14.40
2015,06,21,00,15,14.40
2015,06,21,00,16,14.40
2015,06,21,00,17,14.40
2015,06,21,00,18,14.40
2015,06,21,00,19,14.40
2015,06,21,00,20,14.40
2015,06,21,00,21,14.30
2015,06,21,00,22,14.30
2015,06,21,00,23,14.30
2015,06,21,00,24,14.30
2015,06,21,00,25,14.30
2015,06,21,00,26,14.30
2015,06,21,00,27,14.30
2015,06,21,00,28,14.20
2015,06,21,00,29,14.20
2015,06,21,00,30,14.20
2015,06,21,00,31,14.20
2015,06,21,00,32,14.10
2015,06,21,00,33,14.10
2015,06,21,00,34,14.00
2015,06,21,00,35,14.00
2015,06,21,00,36,13.90
2015,06,21,00,37,13.90
2015,06,21,00,38,13.90
2015,06,21,00,39,13.80
2015,06,21,00,40,13.80
2015,06,21,00,41,13.80
2015,06,21,00,42,13.70
2015,06,21,00,43,13.70
2015,06,21,00,44,13.70
2015,06,21,00,45,13.70
2015,06,21,00,46,13.60
2015,06,21,00,47,13.60
2015,06,21,00,48,13.60
2015,06,21,00,49,13.60
2015,06,21,00,50,13.60
2015,06,21,00,51,13.50
2015,06,21,00,52,13.50
2015,06,21,00,53,13.50
2015,06,21,00,54,13.40
2015,06,21,00,55,13.40
2015,06,21,00,56,13.50
2015,06,21,00,57,13.50
2015,06,21,00,58,13.50
2015,06,21,00,59,13.60
2015,06,21,01,00,13.60
2015,06,21,01,01,13.60
2015,06,21,01,02,13.60
2015,06,21,01,03,13.60
2015,06,21,01,04,13.60
2015,06,21,01,05,13.60
2015,06,21,01,06,13.60
2015,06,21,01,07,13.60
2015,06,21,01,08,13.60
2015,06,21,01,09,13.60
2015,06,21,01,10,13.60
2015,06,21,01,11,13.60
2015,06,21,01,12,13.50
2015,06,21,01,13,13.50
2015,06,21,01,14,13.50
2015,06,21,01,15,13.50
2015,06,21,01,16,13.50
2015,06,21,01,17,13.50
2015,06,21,01,18,13.50
2015,06,21,01,19,13.50
2015,06,21,01,20,13.50
2015,06,21,01,21,13.50
2015,06,21,01,22,13.40
2015,06,21,01,23,13.40
2015,06,21,01,24,13.40
2015,06,21,01,25,13.40
2015,06,21,01,26,13.40
2015,06,21,01,27,13.40
2015,06,21,01,28,13.40
2015,06,21,01,29,13.30
2015,06,21,01,30,13.30
2015,06,21,01,31,13.30
2015,06,21,01,32,13.30
2015,06,21,01,33,13.30
2015,06,21,01,34,13.30
2015,06,21,01,35,13.30
2015,06,21,01,36,13.30
2015,06,21,01,37,13.30
2015,06,21,01,38,13.30
2015,06,21,01,39,13.30
2015,06,21,01,40,13.30
2015,06,21,01,41,13.30
2015,06,21,01,42,13.30
2015,06,21,01,43,13.30
2015,06,21,01,44,13.30
2015,06,21,01,45,13.30
2015,06,21,01,46,13.30
2015,06,21,01,47,13.30
2015,06,21,01,48,13.30
2015,06,21,01,49,13.30
2015,06,21,01,50,13.30
2015,06,21,01,51,13.20
2015,06,21,01,52,13.20
2015,06,21,01,53,13.30
2015,06,21,01,54,13.20
2015,06,21,01,55,13.20
2015,06,21,01,56,13.20
2015,06,21,01,57,13.20
2015,06,21,01,58,13.20
2015,06,21,01,59,13.20
2015,06,21,02,00,13.20
2015,06,21,02,01,13.20
2015,06,21,02,02,13.20
2015,06,21,02,03,13.20
2015,06,21,02,04,13.20
2015,06,21,02,05,13.20
2015,06,21,02,06,13.20
2015,06,21,02,07,13.20
2015,06,21,02,08,13.20
2015,06,21,02,09,13.10
2015,06,21,02,10,13.10
2015,06,21,02,11,13.10
2015,06,21,02,12,13.10
2015,06,21,02,13,13.10
2015,06,21,02,14,13.10
2015,06,21,02,15,13.10
2015,06,21,02,16,13.10
2015,06,21,02,17,13.10
2015,06,21,02,18,13.10
2015,06,21,02,19,13.10
2015,06,21,02,20,13.10
2015,06,21,02,21,13.10
2015,06,21,02,22,13.10
2015,06,21,02,23,13.10
2015,06,21,02,24,13.10
2015,06,21,02,25,13.10
2015,06,21,02,26,13.10
2015,06,21,02,27,13.10
2015,06,21,02,28,13.10
2015,06,21,02,29,13.10
2015,06,21,02,30,13.00
2015,06,21,02,31,13.00
2015,06,21,02,32,13.00
2015,06,21,02,33,12.90
2015,06,21,02,34,12.90
2015,06,21,02,35,12.90
2015,06,21,02,36,12.80
2015,06,21,02,37,12.80
2015,06,21,02,38,12.80
2015,06,21,02,39,12.80
2015,06,21,02,40,12.70
2015,06,21,02,41,12.70
2015,06,21,02,42,12.70
2015,06,21,02,43,12.70
2015,06,21,02,44,12.60
2015,06,21,02,45,12.60
2015,06,21,02,46,12.60
2015,06,21,02,47,12.60
2015,06,21,02,48,12.60
2015,06,21,02,49,12.50
2015,06,21,02,50,12.50
2015,06,21,02,51,12.40
2015,06,21,02,52,12.40
2015,06,21,02,53,12.40
2015,06,21,02,54,12.40
2015,06,21,02,55,12.40
2015,06,21,02,56,12.40
2015,06,21,02,57,12.40
2015,06,21,02,58,12.40
2015,06,21,02,59,12.50
2015,06,21,03,00,12.50
2015,06,21,03,01,12.50
2015,06,21,03,02,12.50
2015,06,21,03,03,12.50
2015,06,21,03,04,12.50
2015,06,21,03,05,12.50
2015,06,21,03,06,12.50
2015,06,21,03,07,12.50
2015,06,21,03,08,12.40
2015,06,21,03,09,12.40
2015,06,21,03,10,12.40
2015,06,21,03,11,12.40
2015,06,21,03,12,12.40
2015,06,21,03,13,12.40
2015,06,21,03,14,12.40
2015,06,21,03,15,12.40
2015,06,21,03,16,12.40
2015,06,21,03,17,12.40
2015,06,21,03,18,12.40
2015,06,21,03,19,12.40
2015,06,21,03,20,12.40
2015,06,21,03,21,12.40
2015,06,21,03,22,12.40
2015,06,21,03,23,12.40
2015,06,21,03,24,12.40
2015,06,21,03,25,12.40
2015,06,21,03,26,12.40
2015,06,21,03,27,12.40
2015,06,21,03,28,12.40
2015,06,21,03,29,12.40
2015,06,21,03,30,12.40
2015,06,21,03,31,12.40
2015,06,21,03,32,12.40
2015,06,21,03,33,12.30
2015,06,21,03,34,12.30
2015,06,21,03,35,12.30
2015,06,21,03,36,12.30
2015,06,21,03,37,12.30
2015,06,21,03,38,12.30
2015,06,21,03,39,12.30
2015,06,21,03,40,12.20
2015,06,21,03,41,12.20
2015,06,21,03,42,12.20
2015,06,21,03,43,12.20
2015,06,21,03,44,12.10
2015,06,21,03,45,12.10
2015,06,21,03,46,12.10
2015,06,21,03,47,12.10
2015,06,21,03,48,12.10
2015,06,21,03,49,12.10
2015,06,21,03,50,12.10
2015,06,21,03,51,12.10
2015,06,21,03,52,12.10
2015,06,21,03,53,12.10
2015,06,21,03,54,12.10
2015,06,21,03,55,12.10
2015,06,21,03,56,12.10
2015,06,21,03,57,12.00
2015,06,21,03,58,12.00
2015,06,21,03,59,12.00
2015,06,21,04,00,12.00
2015,06,21,04,01,12.00
2015,06,21,04,02,12.00
2015,06,21,04,03,12.00
2015,06,21,04,04,12.00
2015,06,21,04,05,12.00
2015,06,21,04,06,11.90
2015,06,21,04,07,11.90
2015,06,21,04,08,11.90
2015,06,21,04,09,11.90
2015,06,21,04,10,11.90
2015,06,21,04,11,11.80
2015,06,21,04,12,11.80
2015,06,21,04,13,11.80
2015,06,21,04,14,11.80
2015,06,21,04,15,11.80
2015,06,21,04,16,11.80
2015,06,21,04,17,11.70
2015,06,21,04,18,11.70
2015,06,21,04,19,11.70
2015,06,21,04,20,11.70
2015,06,21,04,21,11.70
2015,06,21,04,22,11.60
2015,06,21,04,23,11.60
2015,06,21,04,24,11.60
2015,06,21,04,25,11.50
2015,06,21,04,26,11.50
2015,06,21,04,27,11.40
2015,06,21,04,28,11.40
2015,06,21,04,29,11.40
2015,06,21,04,30,11.30
2015,06,21,04,31,11.30
2015,06,21,04,32,11.30
2015,06,21,04,33,11.30
2015,06,21,04,34,11.30
2015,06,21,04,35,11.20
2015,06,21,04,36,11.20
2015,06,21,04,37,11.20
2015,06,21,04,38,11.30
2015,06,21,04,39,11.30
2015,06,21,04,40,11.30
2015,06,21,04,41,11.30
2015,06,21,04,42,11.40
2015,06,21,04,43,11.40
2015,06,21,04,44,11.40
2015,06,21,04,45,11.40
2015,06,21,04,46,11.40
2015,06,21,04,47,11.40
2015,06,21,04,48,11.40
2015,06,21,04,49,11.50
2015,06,21,04,50,11.50
2015,06,21,04,51,11.50
2015,06,21,04,52,11.60
2015,06,21,04,53,11.60
2015,06,21,04,54,11.60
2015,06,21,04,55,11.60
2015,06,21,04,56,11.60
2015,06,21,04,57,11.60
2015,06,21,04,58,11.60
2015,06,21,04,59,11.60
2015,06,21,05,00,11.60
2015,06,21,05,01,11.60
2015,06,21,05,02,11.60
2015,06,21,05,03,11.60
2015,06,21,05,04,11.60
2015,06,21,05,05,11.60
2015,06,21,05,06,11.60
2015,06,21,05,07,11.60
2015,06,21,05,08,11.60
2015,06,21,05,09,11.60
2015,06,21,05,10,11.60
2015,06,21,05,11,11.60
2015,06,21,05,12,11.60
2015,06,21,05,13,11.60
2015,06,21,05,14,11.60
2015,06,21,05,15,11.60
2015,06,21,05,16,11.60
2015,06,21,05,17,11.60
2015,06,21,05,18,11.60
2015,06,21,05,19,11.60
2015,06,21,05,20,11.60
2015,06,21,05,21,11.60
2015,06,21,05,22,11.60
2015,06,21,05,23,11.60
2015,06,21,05,24,11.60
2015,06,21,05,25,11.60
2015,06,21,05,26,11.60
2015,06,21,05,27,11.60
2015,06,21,05,28,11.60
2015,06,21,05,29,11.60
2015,06,21,05,30,11.60
2015,06,21,05,31,11.60
2015,06,21,05,32,11.60
2015,06,21,05,33,11.50
2015,06,21,05,34,11.60
2015,06,21,05,35,11.50
2015,06,21,05,36,11.50
2015,06,21,05,37,11.50
2015,06,21,05,38,11.50
2015,06,21,05,39,11.50
2015,06,21,05,40,11.50
2015,06,21,05,41,11.50
2015,06,21,05,42,11.50
2015,06,21,05,43,11.50
2015,06,21,05,44,11.50
2015,06,21,05,45,11.50
2015,06,21,05,46,11.60
2015,06,21,05,47,11.60
2015,06,21,05,48,11.60
2015,06,21,05,49,11.60
2015,06,21,05,50,11.60
2015,06,21,05,51,11.60
2015,06,21,05,52,11.60
2015,06,21,05,53,11.60
2015,06,21,05,54,11.60
2015,06,21,05,55,11.60
2015,06,21,05,56,11.60
2015,06,21,05,57,11.60
2015,06,21,05,58,11.60
2015,06,21,05,59,11.60
2015,06,21,06,00,11.60
2015,06,21,06,01,11.60
2015,06,21,06,02,11.60
2015,06,21,06,03,11.60
2015,06,21,06,04,11.60
2015,06,21,06,05,11.60
2015,06,21,06,06,11.60
2015,06,21,06,07,11.60
2015,06,21,06,08,11.50
2015,06,21,06,09,11.50
2015,06,21,06,10,11.40
2015,06,21,06,11,11.40
2015,06,21,06,12,11.30
2015,06,21,06,13,11.30
2015,06,21,06,14,11.30
2015,06,21,06,15,11.30
2015,06,21,06,16,11.30
2015,06,21,06,17,11.30
2015,06,21,06,18,11.30
2015,06,21,06,19,11.30
2015,06,21,06,20,11.30
2015,06,21,06,21,11.30
2015,06,21,06,22,11.30
2015,06,21,06,23,11.30
2015,06,21,06,24,11.40
2015,06,21,06,25,11.40
2015,06,21,06,26,11.40
2015,06,21,06,27,11.40
2015,06,21,06,28,11.50
2015,06,21,06,29,11.50
2015,06,21,06,30,11.50
2015,06,21,06,31,11.60
2015,06,21,06,32,11.60
2015,06,21,06,33,11.60
2015,06,21,06,34,11.60
2015,06,21,06,35,11.60
2015,06,21,06,36,11.60
2015,06,21,06,37,11.60
2015,06,21,06,38,11.60
2015,06,21,06,39,11.60
2015,06,21,06,40,11.60
2015,06,21,06,41,11.70
2015,06,21,06,42,11.70
2015,06,21,06,43,11.70
2015,06,21,06,44,11.70
2015,06,21,06,45,11.70
2015,06,21,06,46,11.70
2015,06,21,06,47,11.80
2015,06,21,06,48,11.80
2015,06,21,06,49,11.80
2015,06,21,06,50,11.80
2015,06,21,06,51,11.80
2015,06,21,06,52,11.80
2015,06,21,06,53,11.80
2015,06,21,06,54,11.80
2015,06,21,06,55,11.80
2015,06,21,06,56,11.80
2015,06,21,06,57,11.80
2015,06,21,06,58,11.80
2015,06,21,06,59,11.80
2015,06,21,07,00,11.80
2015,06,21,07,01,11.80
2015,06,21,07,02,11.80
2015,06,21,07,03,11.80
2015,06,21,07,04,11.80
2015,06,21,07,05,11.80
2015,06,21,07,06,11.90
2015,06,21,07,07,11.90
2015,06,21,07,08,11.90
2015,06,21,07,09,11.90
2015,06,21,07,10,11.90
2015,06,21,07,11,12.00
2015,06,21,07,12,12.00
2015,06,21,07,13,12.00
2015,06,21,07,14,12.10
2015,06,21,07,15,12.10
2015,06,21,07,16,12.10
2015,06,21,07,17,12.10
2015,06,21,07,18,12.10
2015,06,21,07,19,12.10
2015,06,21,07,20,12.10
2015,06,21,07,21,12.20
2015,06,21,07,22,12.20
2015,06,21,07,23,12.20
2015,06,21,07,24,12.20
2015,06,21,07,25,12.20
2015,06,21,07,26,12.20
2015,06,21,07,27,12.30
2015,06,21,07,28,12.30
2015,06,21,07,29,12.30
2015,06,21,07,30,12.30
2015,06,21,07,31,12.30
2015,06,21,07,32,12.30
2015,06,21,07,33,12.30
2015,06,21,07,34,12.40
2015,06,21,07,35,12.40
2015,06,21,07,36,12.40
2015,06,21,07,37,12.40
2015,06,21,07,38,12.40
2015,06,21,07,39,12.50
2015,06,21,07,40,12.50
2015,06,21,07,41,12.60
2015,06,21,07,42,12.60
2015,06,21,07,43,12.60
2015,06,21,07,44,12.60
2015,06,21,07,45,12.70
2015,06,21,07,46,12.70
2015,06,21,07,47,12.70
2015,06,21,07,48,12.70
2015,06,21,07,49,12.80
2015,06,21,07,50,12.80
2015,06,21,07,51,12.90
2015,06,21,07,52,12.90
2015,06,21,07,53,13.00
2015,06,21,07,54,13.10
2015,06,21,07,55,13.10
2015,06,21,07,56,13.20
2015,06,21,07,57,13.20
2015,06,21,07,58,13.20
2015,06,21,07,59,13.20
2015,06,21,08,00,13.30
2015,06,21,08,01,13.30
2015,06,21,08,02,13.40
2015,06,21,08,03,13.40
2015,06,21,08,04,13.40
2015,06,21,08,05,13.50
2015,06,21,08,06,13.50
2015,06,21,08,07,13.60
2015,06,21,08,08,13.60
2015,06,21,08,09,13.60
2015,06,21,08,10,13.70
2015,06,21,08,11,13.70
2015,06,21,08,12,13.70
2015,06,21,08,13,13.70
2015,06,21,08,14,13.70
2015,06,21,08,15,13.80
2015,06,21,08,16,13.80
2015,06,21,08,17,13.80
2015,06,21,08,18,13.80
2015,06,21,08,19,13.90
2015,06,21,08,20,13.90
2015,06,21,08,21,13.90
2015,06,21,08,22,13.90
2015,06,21,08,23,13.90
2015,06,21,08,24,14.00
2015,06,21,08,25,14.00
2015,06,21,08,26,14.10
2015,06,21,08,27,14.10
2015,06,21,08,28,14.20
2015,06,21,08,29,14.20
2015,06,21,08,30,14.20
2015,06,21,08,31,14.30
2015,06,21,08,32,14.30
2015,06,21,08,33,14.30
2015,06,21,08,34,14.30
2015,06,21,08,35,14.40
2015,06,21,08,36,14.40
2015,06,21,08,37,14.40
2015,06,21,08,38,14.40
2015,06,21,08,39,14.50
2015,06,21,08,40,14.50
2015,06,21,08,41,14.60
2015,06,21,08,42,14.60
2015,06,21,08,43,14.70
2015,06,21,08,44,14.70
2015,06,21,08,45,14.80
2015,06,21,08,46,14.80
2015,06,21,08,47,14.90
2015,06,21,08,48,14.90
2015,06,21,08,49,14.90
2015,06,21,08,50,15.00
2015,06,21,08,51,15.00
2015,06,21,08,52,15.10
2015,06,21,08,53,15.20
2015,06,21,08,54,15.20
2015,06,21,08,55,15.30
2015,06,21,08,56,15.30
2015,06,21,08,57,15.30
2015,06,21,08,58,15.30
2015,06,21,08,59,15.30
2015,06,21,09,00,15.30
2015,06,21,09,01,15.30
2015,06,21,09,02,15.30
2015,06,21,09,03,15.30
2015,06,21,09,04,15.30
2015,06,21,09,05,15.30
2015,06,21,09,06,15.30
2015,06,21,09,07,15.30
2015,06,21,09,08,15.20
2015,06,21,09,09,15.20
2015,06,21,09,10,15.10
2015,06,21,09,11,15.10
2015,06,21,09,12,15.10
2015,06,21,09,13,15.10
2015,06,21,09,14,15.10
2015,06,21,09,15,15.20
2015,06,21,09,16,15.20
2015,06,21,09,17,15.20
2015,06,21,09,18,15.20
2015,06,21,09,19,15.20
2015,06,21,09,20,15.30
2015,06,21,09,21,15.30
2015,06,21,09,22,15.30
2015,06,21,09,23,15.30
2015,06,21,09,24,15.40
2015,06,21,09,25,15.40
2015,06,21,09,26,15.50
2015,06,21,09,27,15.60
2015,06,21,09,28,15.60
2015,06,21,09,29,15.60
2015,06,21,09,30,15.70
2015,06,21,09,31,15.70
2015,06,21,09,32,15.70
2015,06,21,09,33,15.70
2015,06,21,09,34,15.70
2015,06,21,09,35,15.80
2015,06,21,09,36,15.80
2015,06,21,09,37,15.80
2015,06,21,09,38,15.80
2015,06,21,09,39,15.80
2015,06,21,09,40,15.90
2015,06,21,09,41,15.90
2015,06,21,09,42,15.90
2015,06,21,09,43,15.90
2015,06,21,09,44,15.90
2015,06,21,09,45,15.90
2015,06,21,09,46,15.90
2015,06,21,09,47,15.90
2015,06,21,09,48,16.00
2015,06,21,09,49,16.10
2015,06,21,09,50,16.10
2015,06,21,09,51,16.10
2015,06,21,09,52,16.10
2015,06,21,09,53,16.20
2015,06,21,09,54,16.20
2015,06,21,09,55,16.20
2015,06,21,09,56,16.10
2015,06,21,09,57,16.10
2015,06,21,09,58,16.10
2015,06,21,09,59,16.10
2015,06,21,10,00,16.10
2015,06,21,10,01,16.10
2015,06,21,10,02,16.10
2015,06,21,10,03,16.10
2015,06,21,10,04,16.20
2015,06,21,10,05,16.30
2015,06,21,10,06,16.30
2015,06,21,10,07,16.40
2015,06,21,10,08,16.50
2015,06,21,10,09,16.50
2015,06,21,10,10,16.60
2015,06,21,10,11,16.60
2015,06,21,10,12,16.70
2015,06,21,10,13,16.80
2015,06,21,10,14,16.90
2015,06,21,10,15,17.00
2015,06,21,10,16,17.00
2015,06,21,10,17,17.00
2015,06,21,10,18,17.00
2015,06,21,10,19,16.90
2015,06,21,10,20,16.90
2015,06,21,10,21,16.90
2015,06,21,10,22,16.90
2015,06,21,10,23,16.90
2015,06,21,10,24,17.00
2015,06,21,10,25,17.00
2015,06,21,10,26,17.10
2015,06,21,10,27,17.30
2015,06,21,10,28,17.40
2015,06,21,10,29,17.40
2015,06,21,10,30,17.50
2015,06,21,10,31,17.50
2015,06,21,10,32,17.50
2015,06,21,10,33,17.60
2015,06,21,10,34,17.70
2015,06,21,10,35,17.80
2015,06,21,10,36,17.90
2015,06,21,10,37,18.00
2015,06,21,10,38,18.10
2015,06,21,10,39,18.20
2015,06,21,10,40,18.20
2015,06,21,10,41,18.30
2015,06,21,10,42,18.30
2015,06,21,10,43,18.30
2015,06,21,10,44,18.30
2015,06,21,10,45,18.30
2015,06,21,10,46,18.30
2015,06,21,10,47,18.40
2015,06,21,10,48,18.40
2015,06,21,10,49,18.40
2015,06,21,10,50,18.50
2015,06,21,10,51,18.60
2015,06,21,10,52,18.60
2015,06,21,10,53,18.60
2015,06,21,10,54,18.60
2015,06,21,10,55,18.60
2015,06,21,10,56,18.60
2015,06,21,10,57,18.50
2015,06,21,10,58,18.50
2015,06,21,10,59,18.40
2015,06,21,11,00,18.30
2015,06,21,11,01,18.30
2015,06,21,11,02,18.30
2015,06,21,11,03,18.30
2015,06,21,11,04,18.30
2015,06,21,11,05,18.40
2015,06,21,11,06,18.40
2015,06,21,11,07,18.50
2015,06,21,11,08,18.60
2015,06,21,11,09,18.70
2015,06,21,11,10,18.80
2015,06,21,11,11,18.80
2015,06,21,11,12,18.80
2015,06,21,11,13,18.70
2015,06,21,11,14,18.70
2015,06,21,11,15,18.60
2015,06,21,11,16,18.60
2015,06,21,11,17,18.60
2015,06,21,11,18,18.70
2015,06,21,11,19,18.80
2015,06,21,11,20,18.80
2015,06,21,11,21,18.90
2015,06,21,11,22,18.90
2015,06,21,11,23,18.90
2015,06,21,11,24,18.80
2015,06,21,11,25,18.80
2015,06,21,11,26,18.70
2015,06,21,11,27,18.70
2015,06,21,11,28,18.70
2015,06,21,11,29,18.70
2015,06,21,11,30,18.70
2015,06,21,11,31,18.60
2015,06,21,11,32,18.60
2015,06,21,11,33,18.60
2015,06,21,11,34,18.60
2015,06,21,11,35,18.70
2015,06,21,11,36,18.70
2015,06,21,11,37,18.70
2015,06,21,11,38,18.70
2015,06,21,11,39,18.80
2015,06,21,11,40,18.80
2015,06,21,11,41,18.80
2015,06,21,11,42,18.80
2015,06,21,11,43,18.80
2015,06,21,11,44,18.80
2015,06,21,11,45,18.90
2015,06,21,11,46,18.90
2015,06,21,11,47,19.00
2015,06,21,11,48,19.20
2015,06,21,11,49,19.30
2015,06,21,11,50,19.40
2015,06,21,11,51,19.50
2015,06,21,11,52,19.60
2015,06,21,11,53,19.60
2015,06,21,11,54,19.60
2015,06,21,11,55,19.60
2015,06,21,11,56,19.60
2015,06,21,11,57,19.50
2015,06,21,11,58,19.60
2015,06,21,11,59,19.60
2015,06,21,12,00,19.60
2015,06,21,12,01,19.60
2015,06,21,12,02,19.70
2015,06,21,12,03,19.80
2015,06,21,12,04,19.90
2015,06,21,12,05,20.00
2015,06,21,12,06,20.10
2015,06,21,12,07,20.30
2015,06,21,12,08,20.40
2015,06,21,12,09,20.50
2015,06,21,12,10,20.50
2015,06,21,12,11,20.60
2015,06,21,12,12,20.70
2015,06,21,12,13,20.70
2015,06,21,12,14,20.80
2015,06,21,12,15,20.80
2015,06,21,12,16,20.80
2015,06,21,12,17,20.90
2015,06,21,12,18,20.90
2015,06,21,12,19,20.90
2015,06,21,12,20,21.00
2015,06,21,12,21,21.10
2015,06,21,12,22,21.10
2015,06,21,12,23,21.20
2015,06,21,12,24,21.30
2015,06,21,12,25,21.30
2015,06,21,12,26,21.30
2015,06,21,12,27,21.40
2015,06,21,12,28,21.40
2015,06,21,12,29,21.50
2015,06,21,12,30,21.50
2015,06,21,12,31,21.60
2015,06,21,12,32,21.60
2015,06,21,12,33,21.60
2015,06,21,12,34,21.50
2015,06,21,12,35,21.40
2015,06,21,12,36,21.30
2015,06,21,12,37,21.20
2015,06,21,12,38,21.10
2015,06,21,12,39,21.10
2015,06,21,12,40,21.00
2015,06,21,12,41,21.00
2015,06,21,12,42,21.00
2015,06,21,12,43,21.10
2015,06,21,12,44,21.20
2015,06,21,12,45,21.30
2015,06,21,12,46,21.50
2015,06,21,12,47,21.50
2015,06,21,12,48,21.50
2015,06,21,12,49,21.50
2015,06,21,12,50,21.40
2015,06,21,12,51,21.40
2015,06,21,12,52,21.50
2015,06,21,12,53,21.60
2015,06,21,12,54,21.60
2015,06,21,12,55,21.60
2015,06,21,12,56,21.60
2015,06,21,12,57,21.60
2015,06,21,12,58,21.50
2015,06,21,12,59,21.40
2015,06,21,13,00,21.40
2015,06,21,13,01,21.30
2015,06,21,13,02,21.30
2015,06,21,13,03,21.40
2015,06,21,13,04,21.40
2015,06,21,13,05,21.50
2015,06,21,13,06,21.60
2015,06,21,13,07,21.70
2015,06,21,13,08,21.80
2015,06,21,13,09,21.90
2015,06,21,13,10,21.90
2015,06,21,13,11,22.00
2015,06,21,13,12,22.00
2015,06,21,13,13,21.90
2015,06,21,13,14,21.90
2015,06,21,13,15,21.90
2015,06,21,13,16,21.90
2015,06,21,13,17,21.90
2015,06,21,13,18,21.90
2015,06,21,13,19,21.90
2015,06,21,13,20,22.00
2015,06,21,13,21,22.00
2015,06,21,13,22,22.10
2015,06,21,13,23,22.10
2015,06,21,13,24,22.10
2015,06,21,13,25,22.10
2015,06,21,13,26,22.00
2015,06,21,13,27,22.00
2015,06,21,13,28,22.00
2015,06,21,13,29,22.00
2015,06,21,13,30,22.00
2015,06,21,13,31,22.10
2015,06,21,13,32,22.10
2015,06,21,13,33,22.20
2015,06,21,13,34,22.20
2015,06,21,13,35,22.30
2015,06,21,13,36,22.30
2015,06,21,13,37,22.40
2015,06,21,13,38,22.60
2015,06,21,13,39,22.70
2015,06,21,13,40,22.90
2015,06,21,13,41,23.10
2015,06,21,13,42,23.20
2015,06,21,13,43,23.30
2015,06,21,13,44,23.30
2015,06,21,13,45,23.40
2015,06,21,13,46,23.50
2015,06,21,13,47,23.60
2015,06,21,13,48,23.60
2015,06,21,13,49,23.60
2015,06,21,13,50,23.80
2015,06,21,13,51,23.90
2015,06,21,13,52,23.90
2015,06,21,13,53,23.90
2015,06,21,13,54,23.80
2015,06,21,13,55,23.80
2015,06,21,13,56,23.70
2015,06,21,13,57,23.60
2015,06,21,13,58,23.50
2015,06,21,13,59,23.40
2015,06,21,14,00,23.20
2015,06,21,14,01,23.00
2015,06,21,14,02,22.90
2015,06,21,14,03,22.80
2015,06,21,14,04,22.70
2015,06,21,14,05,22.70
2015,06,21,14,06,22.60
2015,06,21,14,07,22.60
2015,06,21,14,08,22.70
2015,06,21,14,09,22.70
2015,06,21,14,10,22.70
2015,06,21,14,11,22.70
2015,06,21,14,12,22.70
2015,06,21,14,13,22.70
2015,06,21,14,14,22.70
2015,06,21,14,15,22.70
2015,06,21,14,16,22.70
2015,06,21,14,17,22.70
2015,06,21,14,18,22.90
2015,06,21,14,19,23.10
2015,06,21,14,20,23.20
2015,06,21,14,21,23.40
2015,06,21,14,22,23.50
2015,06,21,14,23,23.60
2015,06,21,14,24,23.70
2015,06,21,14,25,23.70
2015,06,21,14,26,23.70
2015,06,21,14,27,23.80
2015,06,21,14,28,23.80
2015,06,21,14,29,23.90
2015,06,21,14,30,23.90
2015,06,21,14,31,23.90
2015,06,21,14,32,23.90
2015,06,21,14,33,23.90
2015,06,21,14,34,23.90
2015,06,21,14,35,23.90
2015,06,21,14,36,23.90
2015,06,21,14,37,24.00
2015,06,21,14,38,24.10
2015,06,21,14,39,24.20
2015,06,21,14,40,24.30
2015,06,21,14,41,24.40
2015,06,21,14,42,24.40
2015,06,21,14,43,24.50
2015,06,21,14,44,24.50
2015,06,21,14,45,24.60
2015,06,21,14,46,24.70
2015,06,21,14,47,24.70
2015,06,21,14,48,24.80
2015,06,21,14,49,24.90
2015,06,21,14,50,24.90
2015,06,21,14,51,25.00
2015,06,21,14,52,25.10
2015,06,21,14,53,25.10
2015,06,21,14,54,25.10
2015,06,21,14,55,25.20
2015,06,21,14,56,25.20
2015,06,21,14,57,25.20
2015,06,21,14,58,25.20
2015,06,21,14,59,25.20
2015,06,21,15,00,25.20
2015,06,21,15,01,25.10
2015,06,21,15,02,25.10
2015,06,21,15,03,25.10
2015,06,21,15,04,25.20
2015,06,21,15,05,25.30
2015,06,21,15,06,25.40
2015,06,21,15,07,25.40
2015,06,21,15,08,25.40
2015,06,21,15,09,25.30
2015,06,21,15,10,25.20
2015,06,21,15,11,25.20
2015,06,21,15,12,25.10
2015,06,21,15,13,25.00
2015,06,21,15,14,25.00
2015,06,21,15,15,25.00
2015,06,21,15,16,25.00
2015,06,21,15,17,25.10
2015,06,21,15,18,25.10
2015,06,21,15,19,25.10
2015,06,21,15,20,25.00
2015,06,21,15,21,25.00
2015,06,21,15,22,25.00
2015,06,21,15,23,25.10
2015,06,21,15,24,25.30
2015,06,21,15,25,25.50
2015,06,21,15,26,25.50
2015,06,21,15,27,25.50
2015,06,21,15,28,25.50
2015,06,21,15,29,25.40
2015,06,21,15,30,25.30
2015,06,21,15,31,25.30
2015,06,21,15,32,25.30
2015,06,21,15,33,25.30
2015,06,21,15,34,25.30
2015,06,21,15,35,25.30
2015,06,21,15,36,25.30
2015,06,21,15,37,25.40
2015,06,21,15,38,25.40
2015,06,21,15,39,25.40
2015,06,21,15,40,25.50
2015,06,21,15,41,25.60
2015,06,21,15,42,25.60
2015,06,21,15,43,25.60
2015,06,21,15,44,25.70
2015,06,21,15,45,25.80
2015,06,21,15,46,25.80
2015,06,21,15,47,25.90
2015,06,21,15,48,26.00
2015,06,21,15,49,26.00
2015,06,21,15,50,26.00
2015,06,21,15,51,25.90
2015,06,21,15,52,25.80
2015,06,21,15,53,25.80
2015,06,21,15,54,25.80
2015,06,21,15,55,25.90
2015,06,21,15,56,25.90
2015,06,21,15,57,26.00
2015,06,21,15,58,26.10
2015,06,21,15,59,26.20
2015,06,21,16,00,26.20
2015,06,21,16,01,26.20
2015,06,21,16,02,26.20
2015,06,21,16,03,26.20
2015,06,21,16,04,26.20
2015,06,21,16,05,26.20
2015,06,21,16,06,26.10
2015,06,21,16,07,26.10
2015,06,21,16,08,26.10
2015,06,21,16,09,26.10
2015,06,21,16,10,26.20
2015,06,21,16,11,26.20
2015,06,21,16,12,26.10
2015,06,21,16,13,26.10
2015,06,21,16,14,26.10
2015,06,21,16,15,26.00
2015,06,21,16,16,26.00
2015,06,21,16,17,25.90
2015,06,21,16,18,25.90
2015,06,21,16,19,25.90
2015,06,21,16,20,25.90
2015,06,21,16,21,25.90
2015,06,21,16,22,25.90
2015,06,21,16,23,25.90
2015,06,21,16,24,25.80
2015,06,21,16,25,25.80
2015,06,21,16,26,25.80
2015,06,21,16,27,25.80
2015,06,21,16,28,25.80
2015,06,21,16,29,25.80
2015,06,21,16,30,25.80
2015,06,21,16,31,25.80
2015,06,21,16,32,25.90
2015,06,21,16,33,25.90
2015,06,21,16,34,26.00
2015,06,21,16,35,26.10
2015,06,21,16,36,26.10
2015,06,21,16,37,26.10
2015,06,21,16,38,26.20
2015,06,21,16,39,26.20
2015,06,21,16,40,26.20
2015,06,21,16,41,26.20
2015,06,21,16,42,26.20
2015,06,21,16,43,26.20
2015,06,21,16,44,26.20
2015,06,21,16,45,26.10
2015,06,21,16,46,26.10
2015,06,21,16,47,26.10
2015,06,21,16,48,26.20
2015,06,21,16,49,26.20
2015,06,21,16,50,26.30
2015,06,21,16,51,26.30
2015,06,21,16,52,26.30
2015,06,21,16,53,26.20
2015,06,21,16,54,26.20
2015,06,21,16,55,26.10
2015,06,21,16,56,26.00
2015,06,21,16,57,25.90
2015,06,21,16,58,25.80
2015,06,21,16,59,25.80
2015,06,21,17,00,25.70
2015,06,21,17,01,25.70
2015,06,21,17,02,25.80
2015,06,21,17,03,25.80
2015,06,21,17,04,25.80
2015,06,21,17,05,25.70
2015,06,21,17,06,25.70
2015,06,21,17,07,25.70
2015,06,21,17,08,25.70
2015,06,21,17,09,25.70
2015,06,21,17,10,25.70
2015,06,21,17,11,25.80
2015,06,21,17,12,25.90
2015,06,21,17,13,26.00
2015,06,21,17,14,26.10
2015,06,21,17,15,26.10
2015,06,21,17,16,26.20
2015,06,21,17,17,26.30
2015,06,21,17,18,26.30
2015,06,21,17,19,26.40